Regional Weather Roundup
Issued by NWS Sioux Falls, SD

Home | Current Version | Previous Version | Graphics & Text | Print | Product List | Glossary On
Versions: 1 2 3 4 5 6 7 8 9 10 11 12 13 14 15 16 17 18 19 20 21 22 23 24 25 26 27 28 29 30 31 32 33 34 35 36 37 38 39 40 41 42 43 44 45 46 47 48 49 50
000
ASUS43 KFSD 210410
RWRFSD

WEATHER ROUNDUP FOR SE SOUTH DAKOTA/SW MINNESOTA/NW IOWA
NATIONAL WEATHER SERVICE SIOUX FALLS SD
1100 PM CDT THU JUL 20 2017

NOTE: "FAIR" INDICATES FEW OR NO CLOUDS BELOW 12,000 FEET WITH NO
SIGNIFICANT WEATHER AND OR OBSTRUCTIONS TO VISIBILITY.


SDZ038>040-050-052>070-210500-
SOUTHEAST SOUTH DAKOTA

CITY           SKY/WX    TMP DP  RH WIND       PRES   REMARKS
BROOKINGS      CLEAR     76  67  73 E8        29.97R
CHAMBERLAIN    CLEAR     80  73  81 E7        29.88F
HURON          CLEAR     77  70  79 SE9       29.89F
MADISON        FAIR      70  70 100 E7        29.97R
MITCHELL       CLEAR     76  73  91 E6        29.91R
SIOUX FALLS    CLEAR     76  71  85 E7        29.95R
WINNER         FAIR      79  66  64 SE9       29.89F
YANKTON        CLEAR     77  72  84 E6        29.91S
$$

MNZ071-072-080-081-089-090-097-098-210500-
SOUTHWEST MINNESOTA

CITY           SKY/WX    TMP DP  RH WIND       PRES   REMARKS
FAIRMONT       CLOUDY    73  71  93 E3        29.96F
JACKSON        CLEAR     72  70  94 CALM      29.98S
LUVERNE        PTCLDY    72  68  88 E3        29.97S
MARSHALL       CLEAR     73  70  90 S7        29.96R
MONTEVIDEO     CLEAR     70  64  83 CALM      29.97R
PIPESTONE      CLEAR     73  70  88 SE6       29.98R
REDWOOD FALLS  CLEAR     71  68  90 SE6       29.95S
TRACY          CLEAR     73  71  93 SE5       29.98R
WINDOM         CLEAR     73  70  88 E3        29.97F
WORTHINGTON    CLEAR     73  72  96 E3        29.98S
$$

IAZ001>003-012>014-020>022-031-032-NEZ013-014-SDZ071-210500-
NORTHWEST IOWA

CITY           SKY/WX    TMP DP  RH WIND       PRES   REMARKS
CHEROKEE       CLOUDY    75  72  90 CALM      29.92F
DENISON        MOCLDY    72  70  94 CALM      29.93F
ESTHERVILLE    CLOUDY    73  73 100 CALM      29.95F
ORANGE CITY    CLOUDY    77  73  88 CALM      29.94F
SHELDON        CLEAR     75  73  94 SE5       29.92F
SIOUX CITY     CLEAR     74  69  85 SE5       29.90F
SPENCER        PTCLDY    75  72  90 NE7       29.94F
STORM LAKE     CLOUDY    72  68  88 CALM      29.94F
$$

ABBREVIATIONS USED IN REMARKS
   TC - TEMPERATURE IN CELSIUS
  WCI - WIND CHILL INDEX
   HX - HEAT INDEX
  VSB - VISIBILITY




USA.gov is the U.S. government's official web portal to all federal, state and local government web resources and services.